Location: Ku?niki
(51.4449°N, 17.8974°E)
Time: 00:45:23
(UTC+00:00)

Okean 2 Rocket - Pass Details

Date: 18 September 2020
Orbit: 616 x 642 km, 82.5° (Epoch: 23 October)

Event Time Altitude Azimuth Distance (km) Brightness Sun altitude
Rises 18:03:57 0° 174° (S) 2,934 6.3 -11.4°
Reaches altitude 10° 18:06:14 10° 169° (SSE) 2,027 5.4 -11.7°
Maximum altitude 18:10:34 50° 94° (E) 818 3.3 -12.4°
Drops below altitude 10° 18:14:55 10° 20° (NNE) 2,030 5.7 -13.0°
Sets 18:17:12 0° 15° (NNE) 2,938 6.6 -13.3°
